Simultaneous Nadir Overpasses (SNOs) Predictions

Prediction of SNOs between LANDSAT-8 and NOAA-19 Satellite Orbit:

Table of predicted SNOs for the next 14.0 days since TLE Epoch: 4/17/2015
Index Date (LANDSAT-8) Time (LANDSAT-8) Lat,Lon (LANDSAT-8) SZA (LANDSAT-8 ) Date (NOAA-19) Time (NOAA-19) Lat,Lon (NOAA-19) SZA (NOAA-19 ) Distance(km) Time Diff (sec)
1 04/18/2015 14:52:46 -73.06, 137.72 117.89 04/18/2015 14:52:28 -73.08, 137.72 117.87 2.06 18
2 04/18/2015 15:42:13 72.98, -54.81 62.02 04/18/2015 15:43:23 72.98, -54.80 62.03 0.77 70
3 04/20/2015 19:37:02 -73.13, 66.77 118.58 04/20/2015 19:35:54 -73.12, 66.80 118.58 1.09 68
4 04/20/2015 20:26:29 73.04,-125.77 61.32 04/20/2015 20:26:49 73.02,-125.71 61.31 2.47 20
5 04/23/2015 01:10:44 73.09, 163.25 60.63 04/23/2015 01:10:14 73.07, 163.36 60.62 3.79 30
6 04/23/2015 02:00:13 -73.02, -29.24 119.45 04/23/2015 02:01:18 -72.99, -29.24 119.48 3.31 65
7 04/25/2015 05:54:57 73.28, 92.57 60.11 04/25/2015 05:53:45 73.38, 91.84 60.20 25.66 72
8 04/25/2015 06:44:29 -73.06,-100.24 120.14 04/25/2015 06:44:44 -73.06,-100.21 120.13 1.01 15
9 04/27/2015 11:28:44 -73.14,-171.15 120.76 04/27/2015 11:28:10 -73.14,-171.20 120.76 1.65 34
10 04/27/2015 12:18:11 73.05, -3.70 59.13 04/27/2015 12:19:06 73.06, -3.76 59.15 2.76 55
11 04/29/2015 16:12:53 -73.53, 118.56 121.06 04/29/2015 16:11:43 -73.58, 116.96 121.02 50.66 70
12 04/29/2015 17:02:26 73.11, -74.64 58.51 04/29/2015 17:02:31 73.09, -74.65 58.49 2.56 5
